Location: Drocourt
(49.0571°N, 1.7669°E)
Time: 05:33:19
(UTC+00:00)

Landsat 4 - Pass Details

Date: 09 February 2023
Orbit: 487 x 502 km, 98.3° (Epoch: 30 March)

Event Time Altitude Azimuth Distance (km) Brightness Sun altitude
Rises 17:32:42 0° 175° (S) 2,552 7.4 -5.5°
Reaches altitude 10° 17:34:47 10° 180° (S) 1,678 6.5 -5.8°
Maximum altitude 17:38:19 54° 258° (WSW) 603 4.5 -6.4°
Drops below altitude 10° 17:41:55 10° 337° (NNW) 1,704 6.4 -6.9°
Sets 17:44:03 0° 342° (NNW) 2,596 7.3 -7.3°
